Weather History for KCNI - November, 2013

Change the Weather History Date:

Wednesday, November 6, 2013

  Actual Average (KGVL) Record (KGVL)
Temperature  
Mean Temperature 60 °F 56 °F  
Max Temperature 69 °F 65 °F 80 °F (1938)
Min Temperature 50 °F 46 °F 24 °F (1939)
Degree Days  
Heating Degree Days 6 10  
Month to date heating degree days 54  
Since 1 July heating degree days 212  
Growing Degree Days 10 (Base 50)    
Moisture  
Dew Point 47 °F    
Average Humidity 63    
Maximum Humidity 82    
Minimum Humidity 43    
Precipitation  
Precipitation 0.00 in 0.12 in 2.35 in (1977)
Month to date precipitation 0.66  
Year to date precipitation 45.67  
Snow  
Snow 0.00 in - - ()
Month to date snowfall  
Since 1 July snowfall  
Since 1 September snowfall  
Snow Depth -    
Sea Level Pressure  
Sea Level Pressure 30.25 in    
Wind  
Wind Speed 5 mph (East)    
Max Wind Speed 9 mph    
Max Gust Speed -    
Visibility 10 miles    
Events      
T = Trace of Precipitation, MM = Missing Value Source: NWS Daily Summary

Daily Weather History Graph

Daily Weather History Graph

Search for Another Location

Airport or City:

Trip Planner

Search our weather history database for the weather conditions in past years. The results will help you decide how hot, cold, wet, or windy it might be!

Date:

Astronomy

Nov. 06, 2013 Rise Set
Actual Time 7:02 AM EST 5:39 PM EST
Civil Twilight 6:36 AM EST 6:05 PM EST
Nautical Twilight 6:06 AM EST 6:35 PM EST
Astronomical Twilight 5:36 AM EST 7:05 PM EST
Moon 10:13 AM EST (11/6) 8:46 PM EST (11/6)
Length of Visible Light 11h 29m
Length of Day
10h 37m
Waxing Crescent, 13% of the Moon is Illuminated
Nov 6
Waxing Crescent
Nov 10
First Quarter
Nov 17
Full
Nov 25
Last Quarter
Dec 2
New

Hourly Weather History & Observations

Time (EST) Temp. Dew Point Humidity Pressure Visibility Wind Dir Wind Speed Gust Speed Precip Events Conditions
12:15 AM 50.0 °F 37.4 °F 62% 30.35 in 10.0 mi ENE 5.8 mph - N/A   Scattered Clouds
12:35 AM 51.8 °F 37.4 °F 58% 30.35 in 10.0 mi East 4.6 mph - N/A   Mostly Cloudy
12:55 AM 51.8 °F 37.4 °F 58% 30.35 in 10.0 mi East 4.6 mph - N/A   Overcast
1:35 AM 51.8 °F 41.0 °F 67% 30.34 in 7.0 mi East 6.9 mph - N/A   Overcast
1:55 AM 50.0 °F 41.0 °F 71% 30.34 in 10.0 mi East 4.6 mph - N/A   Overcast
2:15 AM 50.0 °F 41.0 °F 71% 30.33 in 10.0 mi East 6.9 mph - N/A   Overcast
2:35 AM 51.8 °F 42.8 °F 71% 30.32 in 10.0 mi East 8.1 mph - N/A   Overcast
2:55 AM 51.8 °F 42.8 °F 71% 30.32 in 10.0 mi East 6.9 mph - N/A   Overcast
3:15 AM 51.8 °F 44.6 °F 76% 30.31 in 5.0 mi ENE 8.1 mph - N/A   Haze
3:35 AM 51.8 °F 44.6 °F 76% 30.30 in 10.0 mi ENE 8.1 mph - N/A   Overcast
3:55 AM 51.8 °F 44.6 °F 76% 30.30 in 10.0 mi East 4.6 mph - N/A   Overcast
4:15 AM 51.8 °F 44.6 °F 76% 30.29 in 10.0 mi ENE 6.9 mph - N/A   Overcast
4:35 AM 51.8 °F 46.4 °F 82% 30.30 in 10.0 mi ENE 6.9 mph - N/A   Overcast
4:55 AM 51.8 °F 46.4 °F 82% 30.30 in 10.0 mi ENE 6.9 mph - N/A   Overcast
5:15 AM 53.6 °F 46.4 °F 77% 30.30 in 10.0 mi East 4.6 mph - N/A   Overcast
5:35 AM 53.6 °F 46.4 °F 77% 30.30 in 10.0 mi ENE 5.8 mph - N/A   Overcast
5:55 AM 53.6 °F 46.4 °F 77% 30.30 in 10.0 mi ENE 4.6 mph - N/A   Overcast
6:15 AM 53.6 °F 46.4 °F 77% 30.30 in 10.0 mi East 3.5 mph - N/A   Overcast
6:35 AM 53.6 °F 46.4 °F 77% 30.30 in 10.0 mi East 4.6 mph - N/A   Overcast
6:55 AM 53.6 °F 46.4 °F 77% 30.30 in 10.0 mi ENE 3.5 mph - N/A   Overcast
7:15 AM 53.6 °F 46.4 °F 77% 30.31 in 10.0 mi East 3.5 mph - N/A   Overcast
7:35 AM 53.6 °F 46.4 °F 77% 30.31 in 10.0 mi ENE 4.6 mph - N/A   Overcast
7:55 AM 53.6 °F 46.4 °F 77% 30.31 in 10.0 mi East 6.9 mph - N/A   Overcast
8:15 AM 55.4 °F 46.4 °F 72% 30.32 in 10.0 mi East 8.1 mph - N/A   Overcast
8:35 AM 55.4 °F 46.4 °F 72% 30.32 in 10.0 mi East 8.1 mph - N/A   Overcast
8:55 AM 55.4 °F 46.4 °F 72% 30.32 in 10.0 mi East 6.9 mph - N/A   Overcast
9:15 AM 55.4 °F 46.4 °F 72% 30.32 in 10.0 mi East 4.6 mph - N/A   Overcast
9:35 AM 57.2 °F 46.4 °F 67% 30.32 in 10.0 mi East 9.2 mph - N/A   Overcast
9:55 AM 59.0 °F 46.4 °F 63% 30.32 in 10.0 mi East 5.8 mph - N/A   Overcast
10:15 AM 59.0 °F 46.4 °F 63% 30.31 in 10.0 mi Calm Calm - N/A   Overcast
10:35 AM 60.8 °F 46.4 °F 59% 30.31 in 10.0 mi East 8.1 mph - N/A   Mostly Cloudy
10:55 AM 60.8 °F 46.4 °F 59% 30.31 in 10.0 mi East 4.6 mph - N/A   Mostly Cloudy
11:15 AM 62.6 °F 46.4 °F 55% 30.30 in 10.0 mi East 8.1 mph - N/A   Mostly Cloudy
11:35 AM 62.6 °F 46.4 °F 55% 30.30 in 10.0 mi East 9.2 mph - N/A   Mostly Cloudy
11:55 AM 64.4 °F 46.4 °F 52% 30.28 in 10.0 mi East 8.1 mph - N/A   Mostly Cloudy
12:15 PM 64.4 °F 46.4 °F 52% 30.28 in 10.0 mi East 5.8 mph - N/A   Mostly Cloudy
12:35 PM 64.4 °F 46.4 °F 52% 30.26 in 10.0 mi East 6.9 mph - N/A   Scattered Clouds
12:55 PM 69.8 °F 46.4 °F 43% 30.25 in 10.0 mi East 8.1 mph - N/A   Scattered Clouds
1:15 PM 68.0 °F 46.4 °F 46% 30.24 in 10.0 mi SSE 6.9 mph - N/A   Scattered Clouds
1:35 PM 68.0 °F 48.2 °F 49% 30.23 in 10.0 mi South 6.9 mph - N/A   Clear
1:55 PM 69.8 °F 46.4 °F 43% 30.22 in 10.0 mi East 6.9 mph - N/A   Scattered Clouds
2:15 PM 69.8 °F 48.2 °F 46% 30.21 in 10.0 mi East 8.1 mph - N/A   Mostly Cloudy
2:35 PM 69.8 °F 48.2 °F 46% 30.20 in 10.0 mi East 4.6 mph - N/A   Scattered Clouds
2:55 PM 69.8 °F 46.4 °F 43% 30.20 in 10.0 mi ESE 6.9 mph - N/A   Mostly Cloudy
3:15 PM 69.8 °F 46.4 °F 43% 30.19 in 10.0 mi East 5.8 mph - N/A   Mostly Cloudy
3:35 PM 68.0 °F 48.2 °F 49% 30.19 in 10.0 mi ESE 5.8 mph - N/A   Mostly Cloudy
3:55 PM 69.8 °F 48.2 °F 46% 30.18 in 10.0 mi SSE 4.6 mph - N/A   Mostly Cloudy
4:15 PM 69.8 °F 48.2 °F 46% 30.18 in 10.0 mi ESE 5.8 mph - N/A   Mostly Cloudy
4:35 PM 69.8 °F 48.2 °F 46% 30.18 in 10.0 mi East 4.6 mph - N/A   Overcast
4:55 PM 68.0 °F 50.0 °F 52% 30.17 in 10.0 mi East 4.6 mph - N/A   Mostly Cloudy
5:15 PM 68.0 °F 50.0 °F 52% 30.17 in 10.0 mi Calm Calm - N/A   Overcast
5:35 PM 68.0 °F 50.0 °F 52% 30.17 in 10.0 mi Calm Calm - N/A   Overcast
5:55 PM 68.0 °F 50.0 °F 52% 30.17 in 10.0 mi East 3.5 mph - N/A   Overcast
6:15 PM 66.2 °F 50.0 °F 56% 30.17 in 10.0 mi Calm Calm - N/A   Overcast
6:35 PM 66.2 °F 50.0 °F 56% 30.17 in 10.0 mi Calm Calm - N/A   Overcast
6:55 PM 64.4 °F 50.0 °F 59% 30.17 in 10.0 mi Calm Calm - N/A   Overcast
7:15 PM 64.4 °F 50.0 °F 59% 30.17 in 10.0 mi Calm Calm - N/A   Overcast
7:35 PM 64.4 °F 50.0 °F 59% 30.17 in 10.0 mi Calm Calm - N/A   Overcast
7:55 PM 64.4 °F 50.0 °F 59% 30.17 in 10.0 mi Calm Calm - N/A   Overcast
8:15 PM 64.4 °F 51.8 °F 64% 30.16 in 10.0 mi Calm Calm - N/A   Overcast
8:35 PM 62.6 °F 51.8 °F 68% 30.16 in 10.0 mi ENE 3.5 mph - N/A   Overcast
8:55 PM 62.6 °F 51.8 °F 68% 30.16 in 10.0 mi East 3.5 mph - N/A   Scattered Clouds
9:15 PM 62.6 °F 51.8 °F 68% 30.16 in 10.0 mi East 3.5 mph - N/A   Mostly Cloudy
9:35 PM 60.8 °F 51.8 °F 72% 30.16 in 10.0 mi ESE 4.6 mph - N/A   Scattered Clouds
9:55 PM 60.8 °F 51.8 °F 72% 30.16 in 10.0 mi Calm Calm - N/A   Clear
10:15 PM 60.8 °F 51.8 °F 72% 30.16 in 10.0 mi Calm Calm - N/A   Mostly Cloudy
10:35 PM 60.8 °F 51.8 °F 72% 30.16 in 10.0 mi Calm Calm - N/A   Overcast
10:55 PM 60.8 °F 51.8 °F 72% 30.15 in 10.0 mi Calm Calm - N/A   Overcast
11:15 PM 60.8 °F 51.8 °F 72% 30.15 in 10.0 mi Calm Calm - N/A   Overcast
11:35 PM 60.8 °F 51.8 °F 72% 30.15 in 10.0 mi East 4.6 mph - N/A   Overcast
11:55 PM 60.8 °F 51.8 °F 72% 30.14 in 10.0 mi Calm Calm - N/A   Overcast